Cheyenne, WY

2:40 AM MST on December 04, 2016 (GMT -0700)
Cheyenne

Weather History for KCYS - April, 2014

Change the Weather History Date:

Friday, April 25, 2014

  Actual Average Record
Temperature  
Mean Temperature 52 °F 46 °F  
Max Temperature 66 °F 58 °F 77 °F (1962)
Min Temperature 38 °F 33 °F 14 °F (1924)
Degree Days  
Heating Degree Days 13 19  
Month to date heating degree days 512 573  
Since 1 July heating degree days 6589 6493  
Cooling Degree Days 0 0  
Month to date cooling degree days 0 0  
Year to date cooling degree days 0 0  
Growing Degree Days 2 (Base 50)    
Moisture  
Dew Point 24 °F    
Average Humidity 40    
Maximum Humidity 59    
Minimum Humidity 20    
Precipitation  
Precipitation 0.00 in 0.07 in 1.07 in (1999)
Month to date precipitation 0.64 1.44  
Year to date precipitation 3.70 3.29  
Snow  
Snow 0.00 in 0.30 in 9.00 in (1935)
Month to date snowfall 6.1 9.1  
Since 1 July snowfall 77.6 56.9  
Snow Depth 0.00 in    
Sea Level Pressure  
Sea Level Pressure 29.67 in    
Wind  
Wind Speed 11 mph (South)    
Max Wind Speed 25 mph    
Max Gust Speed 32 mph    
Visibility 10 miles    
Events      
T = Trace of Precipitation, MM = Missing Value Source: NWS Daily Summary

Daily Weather History Graph

Daily Weather History Graph

Search for Another Location

Airport or City:

Trip Planner

Search our weather history database for the weather conditions in past years. The results will help you decide how hot, cold, wet, or windy it might be!

Date:

Astronomy

Apr. 25, 2014 Rise Set
Actual Time 6:05 AM MDT 7:50 PM MDT
Civil Twilight 5:35 AM MDT 8:19 PM MDT
Nautical Twilight 5:00 AM MDT 8:55 PM MDT
Astronomical Twilight 4:21 AM MDT 9:33 PM MDT
Moon 3:56 AM MDT (4/25) 4:13 PM MDT (4/25)
Length of Visible Light 14h 43m
Length of Day
13h 45m
Waning Crescent, 15% of the Moon is Illuminated
Apr 25
Waning Crescent
Apr 29
New
May 6
First Quarter
May 14
Full
May 21
Last Quarter

Hourly Weather History & Observations

Time (MDT) Temp. Windchill Dew Point Humidity Pressure Visibility Wind Dir Wind Speed Gust Speed Precip Events Conditions
12:53 AM 46.0 °F 40.6 °F 21.0 °F 37% 29.83 in 10.0 mi West 11.5 mph - N/A   Clear
1:53 AM 46.0 °F 41.0 °F 24.1 °F 42% 29.80 in 10.0 mi West 10.4 mph - N/A   Clear
2:53 AM 44.1 °F 40.8 °F 24.1 °F 45% 29.78 in 10.0 mi West 5.8 mph - N/A   Clear
3:53 AM 45.0 °F 39.3 °F 23.0 °F 42% 29.75 in 10.0 mi WNW 11.5 mph - N/A   Clear
4:53 AM 41.0 °F - 24.1 °F 51% 29.78 in 10.0 mi Calm Calm - N/A   Clear
5:53 AM 39.9 °F 34.5 °F 24.1 °F 53% 29.79 in 10.0 mi NW 8.1 mph - N/A   Clear
6:53 AM 39.9 °F - 26.1 °F 58% 29.80 in 10.0 mi Calm Calm - N/A   Clear
7:53 AM 48.0 °F - 28.0 °F 46% 29.78 in 10.0 mi Calm Calm - N/A   Clear
8:53 AM 51.1 °F - 25.0 °F 36% 29.77 in 10.0 mi South 6.9 mph - N/A   Clear
9:53 AM 55.0 °F - 26.1 °F 33% 29.75 in 10.0 mi South 15.0 mph 20.7 mph N/A   Clear
10:53 AM 57.0 °F - 26.1 °F 30% 29.73 in 10.0 mi South 18.4 mph 25.3 mph N/A   Clear
11:53 AM 60.1 °F - 25.0 °F 26% 29.71 in 10.0 mi SSE 16.1 mph 25.3 mph N/A   Clear
12:53 PM 57.9 °F - 25.0 °F 28% 29.72 in 10.0 mi South 24.2 mph 31.1 mph N/A   Partly Cloudy
1:53 PM 61.0 °F - 26.1 °F 26% 29.67 in 10.0 mi South 20.7 mph 26.5 mph N/A   Clear
2:53 PM 63.0 °F - 28.0 °F 27% 29.65 in 10.0 mi South 18.4 mph 27.6 mph N/A   Scattered Clouds
3:53 PM 64.9 °F - 25.0 °F 22% 29.61 in 10.0 mi SSW 16.1 mph - N/A   Scattered Clouds
4:53 PM 64.0 °F - 23.0 °F 21% 29.60 in 10.0 mi SSE 15.0 mph - N/A   Overcast
5:53 PM 63.0 °F - 21.9 °F 21% 29.59 in 10.0 mi SSE 10.4 mph - N/A   Overcast
6:53 PM 63.0 °F - 21.9 °F 21% 29.57 in 10.0 mi SSE 10.4 mph - N/A   Partly Cloudy
7:53 PM 57.0 °F - 26.1 °F 30% 29.54 in 10.0 mi East 6.9 mph - N/A   Clear
8:53 PM 55.9 °F - 24.1 °F 29% 29.52 in 10.0 mi SE 8.1 mph - N/A   Clear
9:53 PM 57.9 °F - 21.0 °F 24% 29.50 in 10.0 mi South 13.8 mph - N/A   Clear
10:53 PM 55.9 °F - 21.0 °F 26% 29.50 in 10.0 mi South 12.7 mph - N/A   Clear
11:53 PM 53.1 °F - 21.9 °F 30% 29.47 in 10.0 mi SSE 12.7 mph - N/A   Partly Cloudy